Overview Statistics Trail Chart Weather Telemetry Raw packets
 

This is the latest recevied weather packets stored in our database for station/object EA1GGY-1. If no packets are shown the sender has not sent any weather packets the latest 10 day(s).

<< 1 2 3 4 5 6 >>
Time Temp. Humidity Pressure Rain* Wind** Luminosity Snow
1788580358 19.44° C 60% 1020.9 hPa - - - -
1788579758 19.44° C 61% 1020.9 hPa - - - -
1788579156 20° C 57% 1021 hPa - - - -
1788578556 20° C 57% 1020.8 hPa - - - -
1788577955 19.44° C 59% 1020.9 hPa - - - -
1788577354 19.44° C 60% 1020.9 hPa - - - -
1788576753 18.89° C 61% 1020.9 hPa - - - -
1788576152 18.89° C 61% 1020.9 hPa - - - -
1788575552 18.89° C 61% 1020.9 hPa - - - -
1788574951 19.44° C 60% 1021 hPa - - - -
1788574350 19.44° C 60% 1021 hPa - - - -
1788573749 18.89° C 61% 1020.9 hPa - - - -
1788573148 20° C 58% 1020.9 hPa - - - -
1788572548 19.44° C 59% 1020.9 hPa - - - -
1788571947 18.89° C 60% 1020.9 hPa - - - -
1788571346 18.89° C 61% 1021 hPa - - - -
1788570744 20° C 57% 1021.2 hPa - - - -
1788570143 19.44° C 58% 1021.3 hPa - - - -
1788569543 18.89° C 59% 1021.4 hPa - - - -
1788568942 18.89° C 60% 1021.7 hPa - - - -
1788568341 19.44° C 57% 1021.7 hPa - - - -
1788567740 19.44° C 58% 1021.8 hPa - - - -
1788567139 18.89° C 59% 1021.9 hPa - - - -
1788566539 18.89° C 58% 1022 hPa - - - -
1788565938 19.44° C 55% 1022.1 hPa - - - -

* Rain since midnight (hover to see other rain measurements)
** Current wind speed in m/s (hover to see current wind gust speed)